Year,Month,Day,Hour,Minute,Value (Times are PST for temperature in C)
2014,11,14,00,00,4.90
2014,11,14,00,01,4.90
2014,11,14,00,02,4.90
2014,11,14,00,03,4.90
2014,11,14,00,04,4.90
2014,11,14,00,05,4.90
2014,11,14,00,06,5.00
2014,11,14,00,07,4.90
2014,11,14,00,08,4.90
2014,11,14,00,09,4.90
2014,11,14,00,10,4.90
2014,11,14,00,11,4.90
2014,11,14,00,12,4.90
2014,11,14,00,13,4.90
2014,11,14,00,14,4.90
2014,11,14,00,15,4.90
2014,11,14,00,16,4.80
2014,11,14,00,17,4.80
2014,11,14,00,18,4.80
2014,11,14,00,19,4.80
2014,11,14,00,20,4.80
2014,11,14,00,21,4.80
2014,11,14,00,22,4.70
2014,11,14,00,23,4.70
2014,11,14,00,24,4.70
2014,11,14,00,25,4.70
2014,11,14,00,26,4.70
2014,11,14,00,27,4.80
2014,11,14,00,28,4.80
2014,11,14,00,29,4.80
2014,11,14,00,30,4.70
2014,11,14,00,31,4.70
2014,11,14,00,32,4.70
2014,11,14,00,33,4.70
2014,11,14,00,34,4.70
2014,11,14,00,35,4.70
2014,11,14,00,36,4.70
2014,11,14,00,37,4.70
2014,11,14,00,38,4.80
2014,11,14,00,39,4.80
2014,11,14,00,40,4.80
2014,11,14,00,41,4.80
2014,11,14,00,42,4.80
2014,11,14,00,43,4.80
2014,11,14,00,44,4.80
2014,11,14,00,45,4.80
2014,11,14,00,46,4.80
2014,11,14,00,47,4.80
2014,11,14,00,48,4.70
2014,11,14,00,49,4.70
2014,11,14,00,50,4.70
2014,11,14,00,51,4.70
2014,11,14,00,52,4.70
2014,11,14,00,53,4.70
2014,11,14,00,54,4.70
2014,11,14,00,55,4.70
2014,11,14,00,56,4.70
2014,11,14,00,57,4.70
2014,11,14,00,58,4.70
2014,11,14,00,59,4.70
2014,11,14,01,00,4.70
2014,11,14,01,01,4.70
2014,11,14,01,02,4.70
2014,11,14,01,03,4.70
2014,11,14,01,04,4.70
2014,11,14,01,05,4.70
2014,11,14,01,06,4.70
2014,11,14,01,07,4.70
2014,11,14,01,08,4.70
2014,11,14,01,09,4.70
2014,11,14,01,10,4.70
2014,11,14,01,11,4.60
2014,11,14,01,12,4.60
2014,11,14,01,13,4.60
2014,11,14,01,14,4.60
2014,11,14,01,15,4.60
2014,11,14,01,16,4.60
2014,11,14,01,17,4.60
2014,11,14,01,18,4.60
2014,11,14,01,19,4.60
2014,11,14,01,20,4.60
2014,11,14,01,21,4.60
2014,11,14,01,22,4.60
2014,11,14,01,23,4.60
2014,11,14,01,24,4.60
2014,11,14,01,25,4.60
2014,11,14,01,26,4.60
2014,11,14,01,27,4.60
2014,11,14,01,28,4.60
2014,11,14,01,29,4.60
2014,11,14,01,30,4.60
2014,11,14,01,31,4.60
2014,11,14,01,32,4.60
2014,11,14,01,33,4.50
2014,11,14,01,34,4.50
2014,11,14,01,35,4.50
2014,11,14,01,36,4.50
2014,11,14,01,37,4.40
2014,11,14,01,38,4.40
2014,11,14,01,39,4.40
2014,11,14,01,40,4.40
2014,11,14,01,41,4.40
2014,11,14,01,42,4.40
2014,11,14,01,43,4.40
2014,11,14,01,44,4.40
2014,11,14,01,45,4.40
2014,11,14,01,46,4.40
2014,11,14,01,47,4.40
2014,11,14,01,48,4.40
2014,11,14,01,49,4.40
2014,11,14,01,50,4.40
2014,11,14,01,51,4.40
2014,11,14,01,52,4.40
2014,11,14,01,53,4.40
2014,11,14,01,54,4.40
2014,11,14,01,55,4.40
2014,11,14,01,56,4.40
2014,11,14,01,57,4.40
2014,11,14,01,58,4.40
2014,11,14,01,59,4.40
2014,11,14,02,00,4.40
2014,11,14,02,01,4.40
2014,11,14,02,02,4.40
2014,11,14,02,03,4.40
2014,11,14,02,04,4.40
2014,11,14,02,05,4.50
2014,11,14,02,06,4.50
2014,11,14,02,07,4.50
2014,11,14,02,08,4.50
2014,11,14,02,09,4.40
2014,11,14,02,10,4.40
2014,11,14,02,11,4.40
2014,11,14,02,12,4.40
2014,11,14,02,13,4.40
2014,11,14,02,14,4.40
2014,11,14,02,15,4.40
2014,11,14,02,16,4.40
2014,11,14,02,17,4.40
2014,11,14,02,18,4.30
2014,11,14,02,19,4.30
2014,11,14,02,20,4.30
2014,11,14,02,21,4.30
2014,11,14,02,22,4.30
2014,11,14,02,23,4.30
2014,11,14,02,24,4.30
2014,11,14,02,25,4.30
2014,11,14,02,26,4.30
2014,11,14,02,27,4.30
2014,11,14,02,28,4.30
2014,11,14,02,29,4.30
2014,11,14,02,30,4.40
2014,11,14,02,31,4.40
2014,11,14,02,32,4.40
2014,11,14,02,33,4.40
2014,11,14,02,34,4.40
2014,11,14,02,35,4.50
2014,11,14,02,36,4.50
2014,11,14,02,37,4.50
2014,11,14,02,38,4.50
2014,11,14,02,39,4.50
2014,11,14,02,40,4.50
2014,11,14,02,41,4.40
2014,11,14,02,42,4.40
2014,11,14,02,43,4.40
2014,11,14,02,44,4.40
2014,11,14,02,45,4.40
2014,11,14,02,46,4.50
2014,11,14,02,47,4.50
2014,11,14,02,48,4.50
2014,11,14,02,49,4.50
2014,11,14,02,50,4.60
2014,11,14,02,51,4.60
2014,11,14,02,52,4.60
2014,11,14,02,53,4.60
2014,11,14,02,54,4.60
2014,11,14,02,55,4.60
2014,11,14,02,56,4.60
2014,11,14,02,57,4.70
2014,11,14,02,58,4.70
2014,11,14,02,59,4.70
2014,11,14,03,00,4.70
2014,11,14,03,01,4.70
2014,11,14,03,02,4.70
2014,11,14,03,03,4.70
2014,11,14,03,04,4.60
2014,11,14,03,05,4.60
2014,11,14,03,06,4.60
2014,11,14,03,07,4.60
2014,11,14,03,08,4.60
2014,11,14,03,09,4.60
2014,11,14,03,10,4.50
2014,11,14,03,11,4.50
2014,11,14,03,12,4.50
2014,11,14,03,13,4.50
2014,11,14,03,14,4.40
2014,11,14,03,15,4.40
2014,11,14,03,16,4.40
2014,11,14,03,17,4.40
2014,11,14,03,18,4.40
2014,11,14,03,19,4.40
2014,11,14,03,20,4.40
2014,11,14,03,21,4.40
2014,11,14,03,22,4.40
2014,11,14,03,23,4.40
2014,11,14,03,24,4.40
2014,11,14,03,25,4.40
2014,11,14,03,26,4.30
2014,11,14,03,27,4.30
2014,11,14,03,28,4.30
2014,11,14,03,29,4.30
2014,11,14,03,30,4.30
2014,11,14,03,31,4.30
2014,11,14,03,32,4.30
2014,11,14,03,33,4.30
2014,11,14,03,34,4.30
2014,11,14,03,35,4.30
2014,11,14,03,36,4.30
2014,11,14,03,37,4.30
2014,11,14,03,38,4.30
2014,11,14,03,39,4.20
2014,11,14,03,40,4.20
2014,11,14,03,41,4.20
2014,11,14,03,42,4.10
2014,11,14,03,43,4.10
2014,11,14,03,44,4.10
2014,11,14,03,45,4.10
2014,11,14,03,46,4.00
2014,11,14,03,47,4.00
2014,11,14,03,48,4.00
2014,11,14,03,49,3.90
2014,11,14,03,50,3.90
2014,11,14,03,51,3.90
2014,11,14,03,52,3.90
2014,11,14,03,53,3.90
2014,11,14,03,54,3.90
2014,11,14,03,55,3.90
2014,11,14,03,56,3.90
2014,11,14,03,57,3.90
2014,11,14,03,58,3.90
2014,11,14,03,59,3.90
2014,11,14,04,00,3.90
2014,11,14,04,01,4.00
2014,11,14,04,02,4.00
2014,11,14,04,03,4.00
2014,11,14,04,04,4.00
2014,11,14,04,05,4.00
2014,11,14,04,06,4.00
2014,11,14,04,07,4.00
2014,11,14,04,08,4.00
2014,11,14,04,09,3.90
2014,11,14,04,10,3.90
2014,11,14,04,11,3.90
2014,11,14,04,12,3.90
2014,11,14,04,13,3.90
2014,11,14,04,14,3.80
2014,11,14,04,15,3.80
2014,11,14,04,16,3.70
2014,11,14,04,17,3.60
2014,11,14,04,18,3.60
2014,11,14,04,19,3.50
2014,11,14,04,20,3.50
2014,11,14,04,21,3.40
2014,11,14,04,22,3.40
2014,11,14,04,23,3.40
2014,11,14,04,24,3.30
2014,11,14,04,25,3.30
2014,11,14,04,26,3.20
2014,11,14,04,27,3.10
2014,11,14,04,28,3.10
2014,11,14,04,29,3.00
2014,11,14,04,30,3.00
2014,11,14,04,31,2.90
2014,11,14,04,32,2.90
2014,11,14,04,33,2.80
2014,11,14,04,34,2.70
2014,11,14,04,35,2.70
2014,11,14,04,36,2.60
2014,11,14,04,37,2.50
2014,11,14,04,38,2.40
2014,11,14,04,39,2.40
2014,11,14,04,40,2.30
2014,11,14,04,41,2.20
2014,11,14,04,42,2.20
2014,11,14,04,43,2.10
2014,11,14,04,44,2.00
2014,11,14,04,45,2.00
2014,11,14,04,46,1.90
2014,11,14,04,47,1.90
2014,11,14,04,48,1.90
2014,11,14,04,49,1.80
2014,11,14,04,50,1.80
2014,11,14,04,51,1.80
2014,11,14,04,52,1.80
2014,11,14,04,53,1.80
2014,11,14,04,54,1.80
2014,11,14,04,55,1.80
2014,11,14,04,56,1.80
2014,11,14,04,57,1.80
2014,11,14,04,58,1.80
2014,11,14,04,59,1.80
2014,11,14,05,00,1.70
2014,11,14,05,01,1.70
2014,11,14,05,02,1.70
2014,11,14,05,03,1.70
2014,11,14,05,04,1.70
2014,11,14,05,05,1.80
2014,11,14,05,06,1.80
2014,11,14,05,07,1.80
2014,11,14,05,08,1.80
2014,11,14,05,09,1.80
2014,11,14,05,10,1.80
2014,11,14,05,11,1.80
2014,11,14,05,12,1.80
2014,11,14,05,13,1.80
2014,11,14,05,14,1.80
2014,11,14,05,15,1.80
2014,11,14,05,16,1.80
2014,11,14,05,17,1.80
2014,11,14,05,18,1.80
2014,11,14,05,19,1.80
2014,11,14,05,20,1.80
2014,11,14,05,21,1.80
2014,11,14,05,22,1.80
2014,11,14,05,23,1.80
2014,11,14,05,24,1.80
2014,11,14,05,25,1.80
2014,11,14,05,26,1.70
2014,11,14,05,27,1.70
2014,11,14,05,28,1.70
2014,11,14,05,29,1.60
2014,11,14,05,30,1.60
2014,11,14,05,31,1.60
2014,11,14,05,32,1.50
2014,11,14,05,33,1.50
2014,11,14,05,34,1.50
2014,11,14,05,35,1.50
2014,11,14,05,36,1.50
2014,11,14,05,37,1.40
2014,11,14,05,38,1.40
2014,11,14,05,39,1.50
2014,11,14,05,40,1.50
2014,11,14,05,41,1.50
2014,11,14,05,42,1.50
2014,11,14,05,43,1.50
2014,11,14,05,44,1.50
2014,11,14,05,45,1.50
2014,11,14,05,46,1.60
2014,11,14,05,47,1.60
2014,11,14,05,48,1.60
2014,11,14,05,49,1.70
2014,11,14,05,50,1.70
2014,11,14,05,51,1.70
2014,11,14,05,52,1.70
2014,11,14,05,53,1.70
2014,11,14,05,54,1.70
2014,11,14,05,55,1.70
2014,11,14,05,56,1.70
2014,11,14,05,57,1.70
2014,11,14,05,58,1.60
2014,11,14,05,59,1.60
2014,11,14,06,00,1.60
2014,11,14,06,01,1.60
2014,11,14,06,02,1.70
2014,11,14,06,03,1.70
2014,11,14,06,04,1.80
2014,11,14,06,05,1.80
2014,11,14,06,06,1.80
2014,11,14,06,07,1.80
2014,11,14,06,08,1.80
2014,11,14,06,09,1.80
2014,11,14,06,10,1.80
2014,11,14,06,11,1.80
2014,11,14,06,12,1.80
2014,11,14,06,13,1.80
2014,11,14,06,14,1.80
2014,11,14,06,15,1.80
2014,11,14,06,16,1.80
2014,11,14,06,17,1.80
2014,11,14,06,18,1.80
2014,11,14,06,19,1.70
2014,11,14,06,20,1.70
2014,11,14,06,21,1.60
2014,11,14,06,22,1.50
2014,11,14,06,23,1.50
2014,11,14,06,24,1.50
2014,11,14,06,25,1.50
2014,11,14,06,26,1.50
2014,11,14,06,27,1.50
2014,11,14,06,28,1.50
2014,11,14,06,29,1.50
2014,11,14,06,30,1.50
2014,11,14,06,31,1.50
2014,11,14,06,32,1.50
2014,11,14,06,33,1.60
2014,11,14,06,34,1.60
2014,11,14,06,35,1.60
2014,11,14,06,36,1.60
2014,11,14,06,37,1.60
2014,11,14,06,38,1.60
2014,11,14,06,39,1.60
2014,11,14,06,40,1.60
2014,11,14,06,41,1.60
2014,11,14,06,42,1.60
2014,11,14,06,43,1.50
2014,11,14,06,44,1.60
2014,11,14,06,45,1.70
2014,11,14,06,46,1.70
2014,11,14,06,47,1.70
2014,11,14,06,48,1.70
2014,11,14,06,49,1.70
2014,11,14,06,50,1.70
2014,11,14,06,51,1.70
2014,11,14,06,52,1.70
2014,11,14,06,53,1.70
2014,11,14,06,54,1.70
2014,11,14,06,55,1.70
2014,11,14,06,56,1.70
2014,11,14,06,57,1.70
2014,11,14,06,58,1.70
2014,11,14,06,59,1.70
2014,11,14,07,00,1.60
2014,11,14,07,01,1.60
2014,11,14,07,02,1.60
2014,11,14,07,03,1.50
2014,11,14,07,04,1.50
2014,11,14,07,05,1.40
2014,11,14,07,06,1.40
2014,11,14,07,07,1.30
2014,11,14,07,08,1.30
2014,11,14,07,09,1.30
2014,11,14,07,10,1.30
2014,11,14,07,11,1.30
2014,11,14,07,12,1.30
2014,11,14,07,13,1.20
2014,11,14,07,14,1.20
2014,11,14,07,15,1.20
2014,11,14,07,16,1.20
2014,11,14,07,17,1.30
2014,11,14,07,18,1.40
2014,11,14,07,19,1.40
2014,11,14,07,20,1.40
2014,11,14,07,21,1.50
2014,11,14,07,22,1.50
2014,11,14,07,23,1.50
2014,11,14,07,24,1.50
2014,11,14,07,25,1.50
2014,11,14,07,26,1.50
2014,11,14,07,27,1.60
2014,11,14,07,28,1.60
2014,11,14,07,29,1.60
2014,11,14,07,30,1.70
2014,11,14,07,31,1.70
2014,11,14,07,32,1.70
2014,11,14,07,33,1.70
2014,11,14,07,34,1.80
2014,11,14,07,35,1.80
2014,11,14,07,36,1.80
2014,11,14,07,37,1.80
2014,11,14,07,38,1.80
2014,11,14,07,39,1.80
2014,11,14,07,40,1.80
2014,11,14,07,41,1.80
2014,11,14,07,42,1.80
2014,11,14,07,43,1.80
2014,11,14,07,44,1.80
2014,11,14,07,45,1.90
2014,11,14,07,46,1.90
2014,11,14,07,47,1.90
2014,11,14,07,48,1.90
2014,11,14,07,49,2.00
2014,11,14,07,50,2.00
2014,11,14,07,51,2.00
2014,11,14,07,52,2.00
2014,11,14,07,53,2.00
2014,11,14,07,54,2.00
2014,11,14,07,55,2.00
2014,11,14,07,56,1.90
2014,11,14,07,57,1.90
2014,11,14,07,58,1.90
2014,11,14,07,59,1.80
2014,11,14,08,00,1.80
2014,11,14,08,01,1.80
2014,11,14,08,02,1.70
2014,11,14,08,03,1.70
2014,11,14,08,04,1.70
2014,11,14,08,05,1.70
2014,11,14,08,06,1.70
2014,11,14,08,07,1.70
2014,11,14,08,08,1.70
2014,11,14,08,09,1.70
2014,11,14,08,10,1.70
2014,11,14,08,11,1.70
2014,11,14,08,12,1.70
2014,11,14,08,13,1.70
2014,11,14,08,14,1.70
2014,11,14,08,15,1.80
2014,11,14,08,16,1.80
2014,11,14,08,17,1.80
2014,11,14,08,18,1.90
2014,11,14,08,19,2.00
2014,11,14,08,20,2.10
2014,11,14,08,21,2.20
2014,11,14,08,22,2.40
2014,11,14,08,23,2.60
2014,11,14,08,24,2.70
2014,11,14,08,25,2.90
2014,11,14,08,26,3.00
2014,11,14,08,27,3.10
2014,11,14,08,28,3.30
2014,11,14,08,29,3.40
2014,11,14,08,30,3.50
2014,11,14,08,31,3.60
2014,11,14,08,32,3.70
2014,11,14,08,33,3.70
2014,11,14,08,34,3.80
2014,11,14,08,35,3.90
2014,11,14,08,36,3.90
2014,11,14,08,37,4.00
2014,11,14,08,38,4.00
2014,11,14,08,39,4.10
2014,11,14,08,40,4.10
2014,11,14,08,41,4.20
2014,11,14,08,42,4.20
2014,11,14,08,43,4.20
2014,11,14,08,44,4.20
2014,11,14,08,45,4.30
2014,11,14,08,46,4.30
2014,11,14,08,47,4.30
2014,11,14,08,48,4.40
2014,11,14,08,49,4.40
2014,11,14,08,50,4.50
2014,11,14,08,51,4.50
2014,11,14,08,52,4.50
2014,11,14,08,53,4.50
2014,11,14,08,54,4.50
2014,11,14,08,55,4.50
2014,11,14,08,56,4.50
2014,11,14,08,57,4.50
2014,11,14,08,58,4.60
2014,11,14,08,59,4.60
2014,11,14,09,00,4.60
2014,11,14,09,01,4.70
2014,11,14,09,02,4.70
2014,11,14,09,03,4.70
2014,11,14,09,04,4.80
2014,11,14,09,05,4.80
2014,11,14,09,06,4.80
2014,11,14,09,07,4.80
2014,11,14,09,08,4.90
2014,11,14,09,09,4.90
2014,11,14,09,10,4.90
2014,11,14,09,11,4.90
2014,11,14,09,12,4.90
2014,11,14,09,13,5.00
2014,11,14,09,14,5.00
2014,11,14,09,15,5.00
2014,11,14,09,16,5.00
2014,11,14,09,17,5.00
2014,11,14,09,18,5.10
2014,11,14,09,19,5.10
2014,11,14,09,20,5.10
2014,11,14,09,21,5.10
2014,11,14,09,22,5.10
2014,11,14,09,23,5.10
2014,11,14,09,24,5.10
2014,11,14,09,25,5.10
2014,11,14,09,26,5.10
2014,11,14,09,27,5.10
2014,11,14,09,28,5.20
2014,11,14,09,29,5.20
2014,11,14,09,30,5.20
2014,11,14,09,31,5.20
2014,11,14,09,32,5.20
2014,11,14,09,33,5.20
2014,11,14,09,34,5.20
2014,11,14,09,35,5.20
2014,11,14,09,36,5.20
2014,11,14,09,37,5.10
2014,11,14,09,38,5.10
2014,11,14,09,39,5.10
2014,11,14,09,40,5.10
2014,11,14,09,41,5.10
2014,11,14,09,42,5.20
2014,11,14,09,43,5.20
2014,11,14,09,44,5.20
2014,11,14,09,45,5.20
2014,11,14,09,46,5.30
2014,11,14,09,47,5.30
2014,11,14,09,48,5.30
2014,11,14,09,49,5.30
2014,11,14,09,50,5.40
2014,11,14,09,51,5.40
2014,11,14,09,52,5.50
2014,11,14,09,53,5.50
2014,11,14,09,54,5.60
2014,11,14,09,55,5.60
2014,11,14,09,56,5.50
2014,11,14,09,57,5.50
2014,11,14,09,58,5.40
2014,11,14,09,59,5.40
2014,11,14,10,00,5.40
2014,11,14,10,01,5.40
2014,11,14,10,02,5.50
2014,11,14,10,03,5.50
2014,11,14,10,04,5.40
2014,11,14,10,05,5.40
2014,11,14,10,06,5.30
2014,11,14,10,07,5.30
2014,11,14,10,08,5.30
2014,11,14,10,09,5.30
2014,11,14,10,10,5.40
2014,11,14,10,11,5.40
2014,11,14,10,12,5.50
2014,11,14,10,13,5.60
2014,11,14,10,14,5.60
2014,11,14,10,15,5.70
2014,11,14,10,16,5.80
2014,11,14,10,17,5.90
2014,11,14,10,18,5.90
2014,11,14,10,19,6.00
2014,11,14,10,20,6.00
2014,11,14,10,21,5.90
2014,11,14,10,22,5.80
2014,11,14,10,23,5.70
2014,11,14,10,24,5.60
2014,11,14,10,25,5.50
2014,11,14,10,26,5.50
2014,11,14,10,27,5.50
2014,11,14,10,28,5.50
2014,11,14,10,29,5.60
2014,11,14,10,30,5.60
2014,11,14,10,31,5.70
2014,11,14,10,32,5.70
2014,11,14,10,33,5.60
2014,11,14,10,34,5.60
2014,11,14,10,35,5.50
2014,11,14,10,36,5.40
2014,11,14,10,37,5.50
2014,11,14,10,38,5.50
2014,11,14,10,39,5.60
2014,11,14,10,40,5.60
2014,11,14,10,41,5.60
2014,11,14,10,42,5.50
2014,11,14,10,43,5.40
2014,11,14,10,44,5.50
2014,11,14,10,45,5.50
2014,11,14,10,46,5.60
2014,11,14,10,47,5.70
2014,11,14,10,48,5.70
2014,11,14,10,49,5.70
2014,11,14,10,50,5.70
2014,11,14,10,51,5.70
2014,11,14,10,52,5.70
2014,11,14,10,53,5.70
2014,11,14,10,54,5.60
2014,11,14,10,55,5.60
2014,11,14,10,56,5.60
2014,11,14,10,57,5.60
2014,11,14,10,58,5.60
2014,11,14,10,59,5.60
2014,11,14,11,00,5.60
2014,11,14,11,01,5.60
2014,11,14,11,02,5.60
2014,11,14,11,03,5.70
2014,11,14,11,04,5.70
2014,11,14,11,05,5.80
2014,11,14,11,06,5.90
2014,11,14,11,07,6.00
2014,11,14,11,08,6.10
2014,11,14,11,09,6.20
2014,11,14,11,10,6.20
2014,11,14,11,11,6.30
2014,11,14,11,12,6.30
2014,11,14,11,13,6.30
2014,11,14,11,14,6.30
2014,11,14,11,15,6.30
2014,11,14,11,16,6.30
2014,11,14,11,17,6.30
2014,11,14,11,18,6.30
2014,11,14,11,19,6.30
2014,11,14,11,20,6.40
2014,11,14,11,21,6.40
2014,11,14,11,22,6.50
2014,11,14,11,23,6.60
2014,11,14,11,24,6.50
2014,11,14,11,25,6.50
2014,11,14,11,26,6.40
2014,11,14,11,27,6.40
2014,11,14,11,28,6.30
2014,11,14,11,29,6.20
2014,11,14,11,30,6.10
2014,11,14,11,31,5.90
2014,11,14,11,32,5.90
2014,11,14,11,33,5.80
2014,11,14,11,34,5.90
2014,11,14,11,35,5.90
2014,11,14,11,36,5.90
2014,11,14,11,37,5.90
2014,11,14,11,38,6.00
2014,11,14,11,39,6.10
2014,11,14,11,40,6.10
2014,11,14,11,41,6.00
2014,11,14,11,42,6.00
2014,11,14,11,43,6.00
2014,11,14,11,44,6.10
2014,11,14,11,45,6.10
2014,11,14,11,46,6.20
2014,11,14,11,47,6.20
2014,11,14,11,48,6.30
2014,11,14,11,49,6.30
2014,11,14,11,50,6.30
2014,11,14,11,51,6.30
2014,11,14,11,52,6.30
2014,11,14,11,53,6.30
2014,11,14,11,54,6.20
2014,11,14,11,55,6.20
2014,11,14,11,56,6.20
2014,11,14,11,57,6.30
2014,11,14,11,58,6.30
2014,11,14,11,59,6.20
2014,11,14,12,00,6.20
2014,11,14,12,01,6.10
2014,11,14,12,02,6.10
2014,11,14,12,03,6.00
2014,11,14,12,04,6.10
2014,11,14,12,05,6.20
2014,11,14,12,06,6.30
2014,11,14,12,07,6.30
2014,11,14,12,08,6.40
2014,11,14,12,09,6.50
2014,11,14,12,10,6.60
2014,11,14,12,11,6.70
2014,11,14,12,12,6.70
2014,11,14,12,13,6.70
2014,11,14,12,14,6.60
2014,11,14,12,15,6.50
2014,11,14,12,16,6.60
2014,11,14,12,17,6.60
2014,11,14,12,18,6.60
2014,11,14,12,19,6.70
2014,11,14,12,20,6.60
2014,11,14,12,21,6.60
2014,11,14,12,22,6.60
2014,11,14,12,23,6.60
2014,11,14,12,24,6.70
2014,11,14,12,25,6.70
2014,11,14,12,26,6.60
2014,11,14,12,27,6.60
2014,11,14,12,28,6.70
2014,11,14,12,29,6.70
2014,11,14,12,30,6.80
2014,11,14,12,31,6.80
2014,11,14,12,32,6.80
2014,11,14,12,33,6.90
2014,11,14,12,34,6.90
2014,11,14,12,35,6.80
2014,11,14,12,36,6.70
2014,11,14,12,37,6.60
2014,11,14,12,38,6.60
2014,11,14,12,39,6.60
2014,11,14,12,40,6.70
2014,11,14,12,41,6.80
2014,11,14,12,42,6.90
2014,11,14,12,43,7.00
2014,11,14,12,44,7.10
2014,11,14,12,45,7.10
2014,11,14,12,46,7.10
2014,11,14,12,47,7.10
2014,11,14,12,48,7.10
2014,11,14,12,49,7.10
2014,11,14,12,50,7.00
2014,11,14,12,51,7.00
2014,11,14,12,52,7.00
2014,11,14,12,53,7.10
2014,11,14,12,54,7.20
2014,11,14,12,55,7.20
2014,11,14,12,56,7.10
2014,11,14,12,57,7.00
2014,11,14,12,58,6.90
2014,11,14,12,59,6.80
2014,11,14,13,00,6.80
2014,11,14,13,01,6.70
2014,11,14,13,02,6.70
2014,11,14,13,03,6.60
2014,11,14,13,04,6.60
2014,11,14,13,05,6.70
2014,11,14,13,06,6.70
2014,11,14,13,07,6.80
2014,11,14,13,08,6.80
2014,11,14,13,09,6.90
2014,11,14,13,10,7.00
2014,11,14,13,11,7.10
2014,11,14,13,12,7.20
2014,11,14,13,13,7.30
2014,11,14,13,14,7.40
2014,11,14,13,15,7.50
2014,11,14,13,16,7.60
2014,11,14,13,17,7.70
2014,11,14,13,18,7.70
2014,11,14,13,19,7.70
2014,11,14,13,20,7.70
2014,11,14,13,21,7.70
2014,11,14,13,22,7.70
2014,11,14,13,23,7.70
2014,11,14,13,24,7.60
2014,11,14,13,25,7.60
2014,11,14,13,26,7.70
2014,11,14,13,27,7.80
2014,11,14,13,28,7.90
2014,11,14,13,29,7.90
2014,11,14,13,30,7.80
2014,11,14,13,31,7.80
2014,11,14,13,32,7.70
2014,11,14,13,33,7.40
2014,11,14,13,34,7.20
2014,11,14,13,35,7.00
2014,11,14,13,36,6.90
2014,11,14,13,37,6.80
2014,11,14,13,38,6.80
2014,11,14,13,39,6.80
2014,11,14,13,40,6.80
2014,11,14,13,41,6.80
2014,11,14,13,42,6.80
2014,11,14,13,43,6.80
2014,11,14,13,44,6.80
2014,11,14,13,45,6.80
2014,11,14,13,46,6.70
2014,11,14,13,47,6.70
2014,11,14,13,48,6.70
2014,11,14,13,49,6.70
2014,11,14,13,50,6.70
2014,11,14,13,51,6.80
2014,11,14,13,52,7.00
2014,11,14,13,53,7.10
2014,11,14,13,54,7.20
2014,11,14,13,55,7.20
2014,11,14,13,56,7.20
2014,11,14,13,57,7.20
2014,11,14,13,58,7.20
2014,11,14,13,59,7.20
2014,11,14,14,00,7.20
2014,11,14,14,01,7.20
2014,11,14,14,02,7.20
2014,11,14,14,03,7.20
2014,11,14,14,04,7.20
2014,11,14,14,05,7.20
2014,11,14,14,06,7.20
2014,11,14,14,07,7.10
2014,11,14,14,08,7.10
2014,11,14,14,09,7.10
2014,11,14,14,10,7.00
2014,11,14,14,11,7.00
2014,11,14,14,12,7.00
2014,11,14,14,13,7.10
2014,11,14,14,14,7.00
2014,11,14,14,15,7.00
2014,11,14,14,16,6.90
2014,11,14,14,17,6.90
2014,11,14,14,18,6.80
2014,11,14,14,19,6.80
2014,11,14,14,20,6.90
2014,11,14,14,21,6.90
2014,11,14,14,22,7.00
2014,11,14,14,23,7.10
2014,11,14,14,24,7.10
2014,11,14,14,25,7.10
2014,11,14,14,26,7.10
2014,11,14,14,27,7.10
2014,11,14,14,28,7.10
2014,11,14,14,29,7.00
2014,11,14,14,30,7.00
2014,11,14,14,31,7.10
2014,11,14,14,32,7.00
2014,11,14,14,33,7.00
2014,11,14,14,34,6.90
2014,11,14,14,35,6.90
2014,11,14,14,36,6.90
2014,11,14,14,37,6.90
2014,11,14,14,38,6.80
2014,11,14,14,39,6.80
2014,11,14,14,40,6.90
2014,11,14,14,41,6.90
2014,11,14,14,42,6.90
2014,11,14,14,43,6.90
2014,11,14,14,44,6.90
2014,11,14,14,45,6.90
2014,11,14,14,46,6.90
2014,11,14,14,47,6.90
2014,11,14,14,48,6.90
2014,11,14,14,49,6.90
2014,11,14,14,50,6.90
2014,11,14,14,51,6.90
2014,11,14,14,52,6.80
2014,11,14,14,53,6.80
2014,11,14,14,54,6.70
2014,11,14,14,55,6.70
2014,11,14,14,56,6.70
2014,11,14,14,57,6.70
2014,11,14,14,58,6.70
2014,11,14,14,59,6.70
2014,11,14,15,00,6.70
2014,11,14,15,01,6.80
2014,11,14,15,02,6.80
2014,11,14,15,03,6.80
2014,11,14,15,04,6.80
2014,11,14,15,05,6.90
2014,11,14,15,06,6.90
2014,11,14,15,07,6.90
2014,11,14,15,08,6.80
2014,11,14,15,09,6.80
2014,11,14,15,10,6.80
2014,11,14,15,11,6.70
2014,11,14,15,12,6.70
2014,11,14,15,13,6.70
2014,11,14,15,14,6.60
2014,11,14,15,15,6.60
2014,11,14,15,16,6.60
2014,11,14,15,17,6.70
2014,11,14,15,18,6.60
2014,11,14,15,19,6.60
2014,11,14,15,20,6.60
2014,11,14,15,21,6.60
2014,11,14,15,22,6.60
2014,11,14,15,23,6.60
2014,11,14,15,24,6.60
2014,11,14,15,25,6.60
2014,11,14,15,26,6.70
2014,11,14,15,27,6.70
2014,11,14,15,28,6.70
2014,11,14,15,29,6.70
2014,11,14,15,30,6.70
2014,11,14,15,31,6.80
2014,11,14,15,32,6.80
2014,11,14,15,33,6.80
2014,11,14,15,34,6.80
2014,11,14,15,35,6.80
2014,11,14,15,36,6.80
2014,11,14,15,37,6.70
2014,11,14,15,38,6.70
2014,11,14,15,39,6.70
2014,11,14,15,40,6.70
2014,11,14,15,41,6.70
2014,11,14,15,42,6.70
2014,11,14,15,43,6.70
2014,11,14,15,44,6.70
2014,11,14,15,45,6.70
2014,11,14,15,46,6.70
2014,11,14,15,47,6.60
2014,11,14,15,48,6.70
2014,11,14,15,49,6.70
2014,11,14,15,50,6.70
2014,11,14,15,51,6.70
2014,11,14,15,52,6.70
2014,11,14,15,53,6.70
2014,11,14,15,54,6.70
2014,11,14,15,55,6.70
2014,11,14,15,56,6.70
2014,11,14,15,57,6.70
2014,11,14,15,58,6.70
2014,11,14,15,59,6.70
2014,11,14,16,00,6.70
2014,11,14,16,01,6.70
2014,11,14,16,02,6.70
2014,11,14,16,03,6.70
2014,11,14,16,04,6.70
2014,11,14,16,05,6.70
2014,11,14,16,06,6.60
2014,11,14,16,07,6.60
2014,11,14,16,08,6.60
2014,11,14,16,09,6.60
2014,11,14,16,10,6.50
2014,11,14,16,11,6.50
2014,11,14,16,12,6.40
2014,11,14,16,13,6.40
2014,11,14,16,14,6.40
2014,11,14,16,15,6.40
2014,11,14,16,16,6.40
2014,11,14,16,17,6.30
2014,11,14,16,18,6.30
2014,11,14,16,19,6.30
2014,11,14,16,20,6.30
2014,11,14,16,21,6.20
2014,11,14,16,22,6.20
2014,11,14,16,23,6.20
2014,11,14,16,24,6.20
2014,11,14,16,25,6.20
2014,11,14,16,26,6.10
2014,11,14,16,27,6.10
2014,11,14,16,28,6.10
2014,11,14,16,29,6.00
2014,11,14,16,30,6.00
2014,11,14,16,31,6.00
2014,11,14,16,32,6.00
2014,11,14,16,33,6.00
2014,11,14,16,34,6.00
2014,11,14,16,35,5.90
2014,11,14,16,36,5.90
2014,11,14,16,37,5.90
2014,11,14,16,38,5.90
2014,11,14,16,39,5.90
2014,11,14,16,40,5.80
2014,11,14,16,41,5.80
2014,11,14,16,42,5.80
2014,11,14,16,43,5.80
2014,11,14,16,44,5.80
2014,11,14,16,45,5.70
2014,11,14,16,46,5.70
2014,11,14,16,47,5.70
2014,11,14,16,48,5.70
2014,11,14,16,49,5.70
2014,11,14,16,50,5.70
2014,11,14,16,51,5.70
2014,11,14,16,52,5.70
2014,11,14,16,53,5.70
2014,11,14,16,54,5.70
2014,11,14,16,55,5.70
2014,11,14,16,56,5.70
2014,11,14,16,57,5.70
2014,11,14,16,58,5.70
2014,11,14,16,59,5.80
2014,11,14,17,00,5.80
2014,11,14,17,01,5.80
2014,11,14,17,02,5.80
2014,11,14,17,03,5.80
2014,11,14,17,04,5.70
2014,11,14,17,05,5.70
2014,11,14,17,06,5.70
2014,11,14,17,07,5.70
2014,11,14,17,08,5.70
2014,11,14,17,09,5.70
2014,11,14,17,10,5.70
2014,11,14,17,11,5.70
2014,11,14,17,12,5.70
2014,11,14,17,13,5.70
2014,11,14,17,14,5.60
2014,11,14,17,15,5.60
2014,11,14,17,16,5.60
2014,11,14,17,17,5.60
2014,11,14,17,18,5.60
2014,11,14,17,19,5.60
2014,11,14,17,20,5.60
2014,11,14,17,21,5.60
2014,11,14,17,22,5.60
2014,11,14,17,23,5.60
2014,11,14,17,24,5.60
2014,11,14,17,25,5.70
2014,11,14,17,26,5.70
2014,11,14,17,27,5.70
2014,11,14,17,28,5.70
2014,11,14,17,29,5.70
2014,11,14,17,30,5.70
2014,11,14,17,31,5.70
2014,11,14,17,32,5.70
2014,11,14,17,33,5.70
2014,11,14,17,34,5.70
2014,11,14,17,35,5.60
2014,11,14,17,36,5.70
2014,11,14,17,37,5.60
2014,11,14,17,38,5.60
2014,11,14,17,39,5.60
2014,11,14,17,40,5.60
2014,11,14,17,41,5.50
2014,11,14,17,42,5.50
2014,11,14,17,43,5.50
2014,11,14,17,44,5.40
2014,11,14,17,45,5.40
2014,11,14,17,46,5.40
2014,11,14,17,47,5.30
2014,11,14,17,48,5.30
2014,11,14,17,49,5.30
2014,11,14,17,50,5.30
2014,11,14,17,51,5.30
2014,11,14,17,52,5.30
2014,11,14,17,53,5.20
2014,11,14,17,54,5.20
2014,11,14,17,55,5.20
2014,11,14,17,56,5.20
2014,11,14,17,57,5.20
2014,11,14,17,58,5.20
2014,11,14,17,59,5.10
2014,11,14,18,00,5.10
2014,11,14,18,01,5.10
2014,11,14,18,02,5.10
2014,11,14,18,03,5.10
2014,11,14,18,04,5.00
2014,11,14,18,05,5.00
2014,11,14,18,06,5.00